User: anonymous   Login
Location: Caltech
(34.1382°N, 118.1253°W)
Time: 14:48:34
(UTC-07:00)
Language:

Gurwin Techsat 1B - Orbit

View from above orbital plane
View from above orbital plane
View from above satellite
View from above satellite

Ground track
Ground track

The orbit data is extracted from the following two-line orbital elements,

1 25397U 98043D   16151.85068456  .00000006  00000-0  21474-4 0  9994
2 25397  98.5660  97.2434 0002195  58.4346 301.7047 14.23594897929394
Epoch (UTC): 30 May 2016 20:24:59
Eccentricity: 0.0002195
inclination: 98.5660°
perigee height: 811 km
apogee height: 815 km
right ascension of ascending node: 97.2434°
argument of perigee: 58.4346°
revolutions per day: 14.23594897
mean anomaly at epoch: 301.7047°
orbit number at epoch: 92939

The dashed part of the orbit path shows where the satellite is in the earth's shadow,  

DLR